Regional Weather Roundup
Issued by NWS

Home | Current Version | Previous Version | Text Only | Print | Product List | Glossary Off
Versions: 1 2 3 4 5 6 7 8 9 10 11 12 13 14 15 16 17 18 19 20 21 22 23 24 25 26 27 28 29 30 31 32 33 34 35 36 37 38 39 40 41 42 43 44 45 46 47 48 49 50

000
ASUS43 KFSD 261810
RWRSD

WEATHER ROUNDUP FOR SOUTH DAKOTA
NATIONAL WEATHER SERVICE SIOUX FALLS SD
100 PM CDT SUN MAR 26 2017

NOTE: "FAIR" INDICATES FEW OR NO CLOUDS BELOW 12,000 FEET WITH NO
SIGNIFICANT WEATHER AND/OR OBSTRUCTIONS TO VISIBILITY.


SDZ001>005-009-010-012>017-261900-
NORTHWEST AND NORTH CENTRAL SOUTH DAKOTA

CITY           SKY/WX    TMP DP  RH WIND       PRES   REMARKS
BUFFALO          N/A     51  39  63 W5        29.87F
FAITH            N/A     47  40  76 MISG      29.93S
MOBRIDGE       CLOUDY    44  36  73 VRB3      29.92S
$$

SDZ012>016-024>037-041>051-057-063-072>074-261900-
SOUTHWEST AND SOUTH CENTRAL SOUTH DAKOTA

CITY           SKY/WX    TMP DP  RH WIND       PRES   REMARKS
RAPID CTY ARPT LGT RAIN  42  38  85 N16       29.93S
PIERRE         LGT RAIN  41  38  89 SE8       29.94S
CUSTER         LGT RAIN  39  36  89 SE6       29.90S
ELLSWORTH AFB  LGT RAIN  43  43 100 N16       29.93
PHILIP         CLOUDY    42  40  92 N5        29.94R
PINE RIDGE     CLOUDY    51  39  63 N9        29.90F
SPEARFISH      LGT RAIN  39  37  93 CALM      29.96S
WINNER         CLOUDY    45  39  79 SE3       29.93S
$$

SDZ004>011-016>023-039-040-261900-
NORTHEAST SOUTH DAKOTA

CITY           SKY/WX    TMP DP  RH WIND       PRES   REMARKS
ABERDEEN       CLOUDY    42  35  76 W5        29.96R
WATERTOWN      CLOUDY    39  36  89 E5        29.93F
BROOKINGS      CLOUDY    38  36  92 NE5       29.93S
SISSETON         N/A     41  39  93 S5        29.94F
$$

SDZ017-020-022-023-036>040-048>070-261900-
SOUTHEAST SOUTH DAKOTA

CITY           SKY/WX    TMP DP  RH WIND       PRES   REMARKS
SIOUX FALLS    CLOUDY    44  37  76 NE5       29.93S
HURON          CLOUDY    42  37  82 CALM      29.95S
CHAMBERLAIN    CLOUDY    46  40  81 CALM      29.95S
MITCHELL       CLOUDY    44  38  79 NW5       29.96R
YANKTON        CLOUDY    41  37  87 NW3       29.95S
$$

ABBREVIATIONS USED IN REMARKS
   TC - TEMPERATURE IN CELSIUS
  WCI - WIND CHILL INDEX
   HX - HEAT INDEX
  VSB - VISIBILITY





USA.gov is the U.S. government's official web portal to all federal, state and local government web resources and services.